SCP
0 0 0 0 0 0 0 0 0 0 0 0 0 0 0 0 0 0 0 0 0 0 0 0 0 0 0 0 0 0 0 0 0 0 0 0 0 0 0 0 0 0 1
0 0 0 0 0 0 0 0 0 0 0 0 0 0 0 0 0 0 0 0 0 0 0 0 0 0 0 0 0 0 0 0 0 0 0 0 0 0 0 0 0 0 0
0 0 0 0 0 0 0 0 0 0 0 0 0 0 0 0 0 0 0 0 0 0 0 0 0 0 0 0 0 0 0 0 0 0 0 0 0 0 0 0 0 0 0
0 0 0 0 0 0 0 0 0 0 0 0 0 0 0 0 0 0 0 0 0 0 0 0 0 0 0 0 0 0 0 0 0 0 0 0 0 0 0 0 0 0 0
0 0 0 0 0 0 0 0 0 0 0 0 0 0 0 0 0 0 0 0 0 0 0 0 0 0 0 0 0 0 0 0 0 0 0 0 0 0 0 0 0 0 0
0 0 0 0 0 0 0 0 0 0 0 0 0 0 0 0 0 0 0 0 0 0 0 0 0 0 0 0 0 0 0 0 0 0 0 0 0 0 0 0 0 0 0
0 0 0 0 0 0 0 0 0 0 0 0 0 0 0 0 0 0 0 0 0 0 0 0 0 0 0 0 0 0 0 0 0 0 0 0 0 0 0 0 0 0 0
0 0 0 0 0 0 0 0 0 0 0 0 0 0 0 0 0 0 0 0 0 0 0 0 0 0 0 0 0 0 0 0 0 0 0 0 0 0 0 0 0 0 0
0 0 0 0 0 0 0 0 0 0 0 0 0 0 0 0 0 0 0 0 0 0 0 0 0 0 0 0 0 0 0 0 0 0 0 0 0 0 0 0 0 0 0
0 0 0 0 0 0 0 0 0 0 0 0 0 0 0 0 0 0 0 0 0 0 0 0 0 0 0 0 0 0 0 0 0 0 0 0 0 0 0 0 0 0 0
0 0 0 0 0 0 0 0 0 0 0 0 0 0 0 0 0 0 0 0 0 0 0 0 0 0 0 0 0 0 0 0 0 0 0 0 0 0 0 0 0 0 0
0 -0 0 0 0 0 0 0 0 0 0 0 0 0 0 0 0 0 0 0 0 0 0 0 0 0 0 0 0 0 0 0 0 0 0 0 0 0 0 0 0 0 0
0 -0 -0 0 0 0 0 0 0 0 0 0 0 0 0 0 0 0 0 0 0 0 0 0 0 0 0 0 0 0 0 0 0 0 0 0 0 0 0 0 0 0 0
0 -0 -0 0 0 0 0 0 0 0 0 0 0 0 0 0 0 0 0 0 0 0 0 0 0 0 0 0 0 0 0 0 0 0 0 0 0 0 0 0 0 0 0
0 0 0 0 0 0 0 0 0 0 0 0 0 0 0 0 0 0 0 0 0 0 0 0 0 0 0 0 0 0 0 0 0 0 0 0 0 0 0 0 0 0 0
0 0 0 0 0 0 0 0 0 0 0 0 0 0 0 0 0 0 0 0 0 0 0 0 0 0 0 0 0 0 0 0 0 0 0 0 0 0 0 0 0 0 0
0 0 0 0 0 0 0 0 0 0 0 0 0 0 0 0 0 0 0 0 0 0 0 0 0 0 0 0 0 0 0 0 0 0 0 0 0 0 0 0 0 0 0
0 0 0 0 0 0 0 0 0 0 0 0 0 0 0 0 0 0 0 0 0 0 0 0 0 0 0 0 0 0 0 0 0 0 0 0 0 0 0 0 0 0 0
0 0 0 0 0 0 0 0 0 0 0 0 0 0 0 0 0 0 0 0 0 0 0 0 0 0 0 0 0 0 0 0 0 0 0 0 0 0 0 0 0 0 0
0 0 0 0 0 0 0 0 0 0 0 0 0 0 0 0 0 0 0 0 0 0 0 0 0 0 0 0 0 0 0 0 0 0 0 0 0 0 0 0 0 0 0
0 0 0 0 0 0 0 0 0 0 0 0 0 0 0 0 0 0 0 0 0 0 0 0 0 0 0 0 0 0 0 0 0 0 0 0 0 0 0 0 0 0 0
0 0 0 0 0 0 0 0 0 0 0 0 0 0 0 0 0 0 0 0 0 0 0 0 0 0 0 0 0 0 0 0 0 0 0 0 0 0 0 0 0 0 0
0 0 0 0 0 0 0 0 0 0 0 0 0 0 0 0 0 0 0 0 0 0 0 0 0 0 0 0 0 0 0 0 0 0 0 0 0 0 0 0 0 0 0
0 0 0 0 0 0 0 0 0 0 0 0 0 0 0 0 0 0 0 0 0 0 0 0 0 0 0 0 0 0 0 0 0 0 0 0 0 0 0 0 0 0 0
0 0 0 0 0 0 0 0 0 0 0 0 0 0 0 0 0 0 0 0 0 0 0 0 0 0 0 0 0 0 0 0 0 0 0 0 0 0 0 0 0 0 0
0 0 0 0 0 0 0 0 0 0 0 0 0 0 0 0 0 0 0 0 0 0 0 0 0 0 0 0 0 0 0 0 0 0 0 0 0 0 0 0 0 0 0
Wind_Speed
12 12 13 13 13 15 16 16 15 15 12 9 7 5 4 4 4 4 4 4 4 5 3 2 3 2 1 2 2 1 2 1 1 1 2 3 4 4 4 3 2 3 4
10 11 11 11 11 12 13 13 13 13 12 10 9 7 6 4 4 4 4 4 5 5 3 2 2 3 1 2 2 1 1 1 0 0 1 2 2 2 3 2 2 1 2
10 10 10 10 9 9 9 11 11 11 12 13 10 9 7 5 4 5 4 5 5 5 4 2 3 3 1 1 1 1 1 1 1 1 1 1 1 1 1 1 1 2 2
8 8 8 9 8 7 6 8 9 10 11 12 13 14 11 9 8 6 5 6 6 5 4 3 3 3 2 1 1 2 1 1 1 1 1 1 2 2 1 1 1 3 4
8 8 8 8 8 7 6 7 8 9 11 13 14 15 13 10 8 7 7 5 4 5 4 3 2 3 2 2 1 1 1 1 0 0 1 2 2 2 2 0 0 2 1
8 8 8 7 7 7 7 8 8 8 10 12 14 15 17 16 13 10 7 5 3 3 5 4 2 2 2 1 1 1 1 1 0 1 1 1 1 0 1 1 0 1 1
9 10 10 10 10 11 11 10 9 8 8 10 12 16 18 18 15 10 6 4 3 2 3 4 2 2 2 1 1 1 0 1 1 1 1 1 1 1 1 2 0 0 1
10 11 12 12 11 12 12 12 11 8 7 9 11 14 17 15 12 10 5 2 2 4 4 3 2 2 2 2 2 1 1 1 1 2 1 1 1 1 1 2 2 0 2
14 14 14 13 14 14 13 14 12 8 7 8 10 12 15 17 17 15 7 1 3 3 6 6 5 4 4 3 2 1 1 1 1 2 2 2 2 2 2 2 3 4 2
13 13 13 14 14 14 13 15 12 10 8 8 10 13 14 16 16 15 11 6 4 4 4 5 6 5 5 4 3 2 2 2 2 1 1 1 1 2 3 3 3 3 4
15 14 13 14 15 15 14 14 12 11 9 9 10 12 13 14 15 14 12 8 6 5 4 3 3 3 3 3 3 3 3 2 2 2 2 2 2 2 2 2 3 3 4
15 15 16 17 16 16 15 14 13 10 9 9 10 12 13 14 14 13 13 11 8 6 5 3 2 2 2 1 1 2 2 2 2 3 3 3 2 2 2 1 2 3 4
16 16 16 17 17 17 16 14 13 11 9 10 11 12 13 13 13 13 12 11 9 7 5 4 2 1 1 2 2 3 4 6 6 6 7 6 6 6 4 4 3 2 2
16 18 17 17 17 17 16 15 13 11 11 10 10 11 12 12 12 12 11 10 9 8 6 5 3 3 3 4 5 6 7 7 7 7 7 7 6 5 5 5 5 4 3
19 19 19 18 18 18 17 16 14 13 12 11 11 11 11 11 11 11 11 10 9 8 8 7 7 5 4 5 6 6 7 7 6 6 6 6 7 9 7 5 5 5 4
19 20 19 19 18 18 17 16 14 13 12 11 11 11 11 11 10 10 10 10 10 9 10 10 9 8 6 10 11 7 5 5 5 4 3 3 4 7 9 8 7 6 4
18 18 17 16 16 16 16 15 13 12 11 11 10 10 11 11 11 10 9 9 9 8 8 8 8 8 9 12 12 10 5 4 4 5 5 5 5 7 5 6 5 3 3
16 15 14 14 14 15 14 13 11 11 10 10 10 9 9 10 10 10 10 9 7 6 6 6 6 5 7 11 10 8 5 3 4 5 6 6 6 5 6 5 4 3 2
13 12 12 12 12 13 13 12 10 10 9 10 9 9 9 10 9 9 9 7 7 6 5 4 5 6 6 10 10 9 4 2 3 4 6 5 6 9 9 7 5 4 5
12 12 11 11 11 12 12 11 10 10 11 10 9 8 8 9 8 9 8 6 6 6 6 5 4 4 4 8 9 9 4 4 3 3 4 7 7 9 9 6 5 5 5
12 12 11 9 9 10 10 10 10 11 12 11 10 8 8 7 7 7 6 6 6 6 5 4 4 2 3 6 8 9 5 5 5 4 3 4 8 8 8 6 4 5 4
12 12 10 9 8 9 8 9 10 11 12 11 10 9 8 8 8 7 6 6 6 6 6 5 5 3 2 3 5 7 6 5 4 3 3 4 7 8 7 3 5 7 5
11 10 10 9 8 8 7 8 10 12 12 12 11 9 9 7 8 7 6 6 6 5 6 6 6 6 6 6 9 10 10 7 2 0 2 3 5 6 5 4 5 4 3
9 9 9 9 9 8 7 7 9 11 11 11 11 10 9 8 8 7 6 4 4 4 6 7 7 6 6 5 5 5 7 9 4 2 1 3 4 2 4 3 3 3 2
8 7 8 8 8 9 8 8 9 11 10 10 10 10 9 8 7 7 8 8 4 5 5 3 4 6 5 9 15 10 5 3 2 2 1 2 1 1 2 2 3 3 3
7 7 8 8 8 9 9 9 10 10 11 11 10 9 8 8 8 7 8 13 15 17 15 11 8 7 10 15 16 15 11 8 5 3 2 2 1 1 2 2 2 2 2
Wind_Direction
36 29 25 20 21 18 10 2 357 351 347 339 332 320 309 306 300 280 272 290 289 285 276 286 307 301 300 296 295 306 337 321 349 320 290 266 237 227 226 225 242 220 187
28 26 23 17 21 18 8 357 353 346 343 334 324 307 293 277 276 297 304 298 290 280 271 260 280 283 273 327 333 9 10 314 170 169 299 308 306 258 210 190 200 214 165
21 17 16 9 11 14 4 352 343 343 344 338 327 319 310 300 286 272 259 252 259 268 259 262 281 291 281 282 312 18 7 268 260 185 135 107 292 315 10 116 105 99 101
16 12 9 3 359 359 350 339 338 344 348 345 338 329 315 300 286 269 245 224 223 242 244 231 254 274 269 244 239 227 150 80 334 343 93 105 92 59 44 10 98 104 91
11 4 0 352 343 337 334 331 340 348 348 345 340 331 318 304 294 291 279 247 219 221 221 208 249 262 255 256 261 95 87 96 181 315 75 53 56 51 94 130 67 77 113
3 352 346 339 328 329 332 334 339 346 347 345 339 330 321 311 301 290 285 273 245 220 203 187 215 262 254 237 195 151 176 210 235 80 77 109 117 133 126 129 174 185 227
355 345 342 338 336 336 336 332 330 335 344 345 338 330 322 314 301 290 285 294 291 264 209 170 174 246 241 185 99 89 250 221 197 175 181 180 182 146 127 139 217 273 274
352 346 343 338 336 335 334 331 323 327 346 347 339 332 328 324 313 300 296 324 6 16 15 46 59 22 18 48 68 52 280 251 216 208 214 203 219 192 179 170 159 309 310
350 346 343 340 339 338 337 333 326 336 349 351 344 335 336 332 329 325 316 1 56 45 26 14 14 13 16 18 21 9 310 302 237 216 219 213 216 212 211 198 174 171 206
345 344 343 342 343 341 339 334 334 339 348 358 351 340 334 332 331 331 334 351 32 52 42 18 6 359 357 359 355 330 327 342 328 303 285 273 244 226 215 206 207 190 184
347 346 347 347 344 339 336 330 333 337 351 358 350 340 335 334 334 334 337 345 4 23 32 24 5 334 340 348 348 336 338 338 324 318 284 262 261 259 245 219 210 213 196
347 350 350 346 341 337 333 333 335 342 352 357 350 342 338 336 335 336 340 347 356 8 6 346 328 305 306 326 2 354 4 9 5 9 26 12 9 359 322 285 241 228 216
348 352 349 343 341 338 337 338 339 345 359 2 354 348 345 340 337 335 338 341 345 348 341 328 325 342 1 51 57 61 61 63 61 57 59 45 43 33 16 11 357 310 267
351 349 346 344 343 341 342 342 346 357 1 1 357 352 346 341 339 340 342 342 341 340 339 337 357 26 56 68 69 70 72 73 68 64 62 54 47 36 27 37 17 3 2
349 349 348 346 346 347 348 351 355 1 1 360 358 352 345 341 341 342 343 344 346 353 360 6 12 22 45 67 71 70 75 77 74 67 64 61 51 47 53 59 38 23 22
347 349 349 349 350 352 352 354 357 358 357 358 357 351 346 344 345 345 349 355 3 11 14 12 10 17 37 62 68 70 70 74 72 65 56 72 66 43 42 48 49 45 42
347 350 350 350 352 354 352 351 352 352 355 355 354 350 347 347 348 348 354 0 4 9 14 11 10 17 30 43 47 48 48 58 65 55 36 23 35 56 31 15 19 38 70
349 351 351 351 353 350 347 345 348 350 351 350 348 345 346 347 350 354 356 357 357 360 2 359 2 13 27 27 24 24 27 36 58 63 51 23 12 42 29 359 349 352 37
352 351 350 351 350 347 341 340 344 345 346 345 344 345 347 345 348 351 350 349 347 350 349 355 2 5 14 17 8 5 338 21 59 82 83 49 32 30 28 10 0 20 25
353 352 349 352 351 342 337 339 345 346 344 341 340 343 347 344 346 342 340 344 342 342 344 347 345 355 14 3 0 5 359 29 34 53 103 79 50 25 23 12 10 39 28
353 352 348 349 342 332 334 341 346 347 340 337 340 345 345 339 344 336 334 340 340 337 333 324 320 352 48 8 12 20 33 25 14 16 64 69 48 17 5 12 23 21 14
352 350 345 340 332 326 334 342 346 341 337 337 341 343 343 344 348 334 335 342 340 341 340 338 342 6 43 41 10 8 15 21 11 20 61 45 25 360 349 4 357 357 2
348 345 340 331 326 326 337 345 343 341 340 340 340 339 342 343 339 335 339 350 347 352 351 353 358 1 3 4 8 5 355 343 331 40 50 17 2 355 347 348 348 2 29
343 339 332 325 323 327 338 345 343 340 339 339 338 339 340 342 340 341 342 346 345 352 352 347 348 346 349 354 357 349 342 339 335 356 359 331 320 293 283 323 14 41 34
335 328 319 318 326 333 339 347 345 340 337 336 337 339 342 337 336 342 340 338 324 327 333 330 331 330 329 322 327 332 329 337 355 10 338 305 316 21 25 28 36 37 24
324 319 318 329 335 338 341 347 345 340 339 340 339 340 340 337 339 338 339 342 342 342 344 338 331 325 323 325 329 330 331 329 325 341 317 313 357 41 43 35 28 20 8